Theta_e
340 338 339 342 343 347 348 349 350 351 350 350 350 351 351 352 352 351 350 350 349 350 351 351 351 350 350 350 350 350 349 348 345 345 346 345 345 344 343 342 341 341 343 343 344 344 344 344 344 345 345 345 346 347 347 347 347 347 347 347 347 347 347 347 346 346 346 346 347 347 345 346 347 347 346 347 347 346 344 343 343 340 341 342 343
339 339 339 339 343 346 347 348 350 351 351 351 351 351 351 351 351 350 350 350 349 349 349 350 350 350 349 350 350 349 348 347 346 346 345 345 345 344 342 341 339 340 341 342 342 342 343 343 343 344 344 344 345 345 345 347 347 346 346 346 346 346 346 346 345 344 344 344 345 346 344 345 346 346 346 347 347 346 343 343 342 339 338 341 340
340 340 340 339 343 345 348 348 349 350 351 351 351 351 351 351 350 350 349 349 349 348 348 349 349 349 349 349 349 349 348 348 345 345 344 344 344 343 342 341 339 339 340 341 341 341 342 342 341 342 342 342 344 344 344 345 345 346 346 346 346 345 345 345 344 343 342 342 342 342 343 344 344 345 346 346 346 346 343 343 343 342 339 342 340
340 340 340 340 343 345 348 348 348 349 351 351 351 351 350 350 350 350 349 348 348 347 347 347 347 347 348 349 348 349 348 347 346 345 344 344 343 342 342 340 338 337 338 341 340 340 341 341 342 342 341 341 342 343 343 345 345 346 346 346 345 345 345 345 343 342 342 341 340 339 338 336 340 344 345 346 346 345 343 343 342 342 341 339 339
340 340 339 339 340 343 349 348 348 350 351 351 350 351 351 350 350 349 349 348 347 347 347 347 347 348 347 347 347 348 348 347 345 344 344 344 343 343 342 340 338 336 337 340 340 340 341 341 341 341 341 341 341 342 343 344 345 346 345 345 345 345 344 343 342 341 340 340 339 337 333 334 336 342 344 346 346 343 342 343 342 341 339 337 338
341 341 339 338 342 344 347 349 349 350 350 350 350 350 349 349 349 349 349 348 347 347 347 347 346 346 346 346 346 347 346 346 344 344 344 343 343 342 342 340 338 335 336 339 340 340 340 340 340 340 340 340 341 341 342 344 345 345 345 345 344 343 343 343 342 340 339 337 336 332 331 332 334 338 342 343 345 342 342 342 342 340 338 337 338
344 342 341 343 342 343 346 349 350 350 350 350 349 349 349 349 349 349 349 348 348 347 346 346 346 346 345 345 346 346 346 344 344 344 344 344 343 342 341 340 338 334 334 338 340 340 340 339 340 340 339 340 340 341 343 344 344 344 344 343 343 343 342 341 340 339 338 334 330 330 329 330 332 335 343 343 343 343 342 343 341 339 338 338 338
346 344 343 344 343 344 345 348 350 350 350 350 349 350 349 349 349 349 348 347 347 347 346 346 346 345 345 345 345 347 346 344 344 344 344 343 342 341 341 340 338 334 334 337 339 340 339 339 339 339 339 338 339 341 342 343 344 343 343 342 342 341 340 339 338 337 336 331 331 331 330 329 330 331 337 338 340 342 341 341 338 337 338 338 335
345 343 343 343 343 340 344 346 348 350 350 349 349 349 349 349 349 348 348 347 347 347 345 345 345 346 346 346 346 346 346 344 344 344 343 342 341 341 341 340 338 334 333 335 338 340 340 339 338 338 338 337 338 339 341 342 343 343 342 341 340 340 338 337 336 334 332 329 330 333 332 330 329 330 336 338 338 339 339 335 335 336 336 335 334
345 343 341 341 341 340 344 346 350 349 349 349 349 349 348 348 348 348 347 347 346 346 346 346 346 346 345 345 345 345 346 344 343 343 343 342 341 341 340 339 338 334 332 334 337 339 340 339 338 338 337 338 337 339 340 342 342 342 341 340 340 339 337 336 334 333 328 328 328 331 335 336 330 332 335 337 337 337 334 333 333 334 333 334 334
345 344 343 339 339 340 346 348 348 348 348 349 348 348 348 348 347 347 347 346 346 346 346 346 346 346 346 345 345 345 345 344 343 343 342 342 341 341 340 339 337 334 331 332 335 338 339 339 338 337 337 338 338 338 339 340 341 341 340 339 338 337 336 333 330 326 326 327 328 328 332 336 332 332 338 337 336 336 333 333 332 333 333 334 334
345 345 344 341 341 340 346 346 348 348 348 349 348 348 348 347 347 347 347 346 346 346 346 346 346 345 345 345 345 345 344 343 342 342 342 341 341 340 339 338 336 333 331 331 334 338 338 337 337 337 336 338 337 338 339 340 340 339 339 338 336 334 332 330 325 324 324 325 326 328 327 329 330 334 337 337 336 335 333 334 334 332 333 333 334
344 344 344 342 341 339 344 344 346 348 347 348 348 348 348 347 347 346 346 346 345 345 345 345 345 345 345 346 345 345 344 343 342 342 341 341 340 340 339 337 335 332 330 330 333 336 336 337 337 337 336 338 338 338 338 338 338 337 336 335 333 331 329 327 321 321 322 322 324 325 325 327 330 336 336 336 335 335 334 334 334 334 334 333 333
343 344 344 343 342 340 339 342 345 347 347 347 347 348 347 347 347 346 345 345 345 345 345 345 345 345 345 345 345 345 343 343 342 342 341 341 340 340 338 336 334 331 329 330 333 335 335 336 336 335 335 335 336 335 335 335 335 334 333 331 329 327 324 322 321 318 319 320 322 323 323 327 329 335 335 335 335 334 334 333 333 333 333 333 332
343 343 343 344 343 342 338 339 341 342 344 347 346 347 346 347 346 347 345 346 345 346 345 345 345 345 345 345 345 344 343 342 342 341 341 341 340 339 338 336 332 328 327 328 331 333 333 334 334 333 332 331 330 329 329 330 331 330 329 327 325 322 320 314 315 314 315 318 319 322 323 325 333 334 335 334 335 334 333 332 332 332 332 332 332
341 341 342 342 342 342 341 339 335 336 340 343 344 345 346 347 346 347 347 346 345 345 345 346 345 344 343 344 344 343 343 342 342 341 341 340 340 340 337 334 330 327 327 328 330 330 330 331 330 329 327 325 324 323 325 326 326 326 325 323 322 320 318 315 312 313 314 315 317 321 324 327 332 333 333 333 333 333 333 332 332 332 332 331 332
338 339 339 339 340 342 343 342 335 331 334 336 338 340 342 343 346 346 346 346 346 346 346 345 344 344 343 343 344 343 343 342 341 341 341 340 338 337 334 332 330 327 327 328 329 329 328 328 327 325 323 320 319 319 321 321 321 321 320 319 318 318 317 315 312 313 315 317 317 318 323 327 333 332 334 334 333 334 336 335 332 331 332 331 331
329 333 333 332 331 334 339 340 339 339 338 334 333 336 339 341 341 341 343 343 345 346 344 344 344 343 343 341 340 340 341 342 341 341 340 339 338 336 334 333 331 328 326 326 326 326 326 326 325 324 322 320 318 319 319 319 318 316 315 314 313 313 313 313 309 312 315 319 317 319 321 330 332 333 333 336 336 336 336 337 337 335 335 334 331
323 324 323 324 325 327 330 334 338 339 339 339 337 334 334 338 338 338 340 341 342 342 342 339 339 340 338 336 335 335 335 336 339 339 338 336 335 336 335 333 332 330 327 326 324 324 323 324 325 325 323 322 321 320 320 319 317 314 313 311 310 310 310 308 307 310 312 315 317 320 323 329 330 331 332 335 337 336 336 336 336 336 335 335 332
319 321 320 320 322 324 325 326 330 333 338 337 337 338 331 330 334 335 335 338 339 338 336 335 333 331 332 331 330 330 328 329 328 332 333 334 332 330 334 333 332 330 328 325 324 323 322 322 323 324 324 323 322 320 319 318 316 314 312 310 309 307 302 304 306 309 311 314 318 320 328 329 330 330 331 333 335 334 333 333 334 336 335 335 335
317 318 317 318 319 320 322 324 324 325 332 337 337 338 334 329 330 330 331 332 334 334 332 326 325 325 327 325 328 334 333 331 331 331 326 328 325 327 334 333 332 330 327 326 324 323 321 321 321 320 319 317 315 316 316 316 314 313 311 308 306 301 302 305 307 309 310 312 315 320 327 328 329 330 330 330 332 332 332 331 331 333 335 334 334
315 316 316 316 317 317 319 319 322 324 326 334 337 337 334 333 337 336 335 330 327 326 329 331 329 329 324 329 334 332 333 333 331 330 328 328 328 324 327 332 333 331 330 328 325 322 322 322 321 319 317 314 309 301 303 309 311 310 308 306 301 301 303 304 306 308 310 312 315 323 326 326 327 328 328 328 329 329 328 329 330 331 333 333 333
314 314 314 315 315 315 317 318 319 322 324 327 333 336 336 336 337 337 335 328 329 328 333 330 331 330 331 333 332 334 333 332 330 329 329 325 327 324 326 329 331 330 331 330 325 323 322 322 320 318 315 310 302 300 300 299 300 305 303 300 300 301 302 304 305 307 309 313 315 325 326 326 327 329 329 329 329 328 328 328 328 329 330 330 330
314 313 313 313 314 315 314 316 316 318 322 323 329 334 336 336 336 336 335 334 333 333 333 333 332 331 332 333 333 332 333 332 326 323 327 329 326 323 323 324 324 323 322 322 324 324 322 321 318 315 311 306 303 302 301 300 300 299 299 299 299 299 300 301 302 304 306 311 316 323 325 326 327 326 327 327 328 328 327 328 328 327 328 328 328
309 309 309 311 313 313 313 314 315 318 320 322 326 332 334 336 336 336 335 334 333 333 333 332 332 332 332 332 332 331 331 329 329 328 330 330 330 329 328 325 323 320 318 315 313 313 311 310 309 309 306 305 304 303 302 301 301 300 299 299 299 298 298 299 299 301 303 307 313 320 323 326 327 328 328 328 327 326 326 326 326 326 327 327 327
304 308 309 310 311 311 311 313 314 317 319 322 322 326 329 335 334 335 334 334 333 333 333 332 332 332 331 330 330 331 329 328 329 329 330 331 330 329 328 324 322 320 319 316 314 313 312 312 311 310 309 307 304 303 302 301 300 299 299 298 298 297 296 296 296 296 298 302 308 317 320 322 324 326 328 328 327 326 326 325 326 326 326 326 327
303 304 303 304 306 307 308 310 315 319 319 321 321 324 328 333 336 335 334 333 333 332 332 332 332 332 331 329 330 330 329 328 329 329 329 331 330 329 328 326 324 323 322 319 317 316 315 313 312 311 309 307 305 302 301 300 299 298 297 297 296 295 295 294 293 293 294 297 303 312 317 319 321 323 325 327 327 328 328 327 326 327 325 325 326
302 303 302 302 302 305 304 307 312 316 322 320 321 326 327 331 335 333 334 331 331 330 331 331 331 331 330 330 329 330 329 328 327 327 329 331 330 329 328 326 324 323 323 321 317 316 316 315 313 311 309 307 304 302 301 300 299 298 297 296 295 294 293 293 292 292 291 292 297 306 312 317 319 321 324 325 326 327 327 326 326 327 328 327 326
303 301 302 303 303 303 305 306 307 313 318 319 323 328 329 330 331 332 331 327 330 329 329 329 328 326 328 328 327 328 329 328 327 326 327 328 328 328 327 325 325 324 323 321 319 318 316 316 314 311 309 306 305 303 301 300 299 298 297 296 295 294 293 292 291 291 290 290 291 299 307 313 317 318 321 322 325 324 324 327 328 328 328 327 327
302 302 301 302 302 304 306 306 306 311 316 319 325 328 329 328 329 329 329 325 329 328 327 327 327 326 326 328 328 329 329 328 327 326 326 325 325 325 326 325 324 323 323 321 320 318 316 315 313 311 309 307 304 302 300 300 300 298 297 296 294 293 292 291 290 289 289 289 289 291 301 306 311 315 317 319 321 323 324 325 326 326 327 327 326
299 301 302 301 302 305 307 307 306 308 314 318 326 328 327 327 326 326 325 326 324 325 324 324 325 325 327 327 328 328 328 327 326 325 324 324 323 323 322 322 322 321 322 320 320 318 317 315 313 311 309 306 304 302 301 300 299 298 298 295 293 292 291 290 290 289 288 288 288 288 291 299 304 309 312 315 318 320 321 321 323 325 325 326 327
300 301 301 302 305 307 309 310 310 313 315 319 326 326 325 324 322 322 322 322 323 322 323 323 322 324 324 327 327 327 326 326 325 324 324 323 322 321 321 321 319 319 320 319 318 317 316 315 314 313 311 307 304 302 301 300 298 297 297 295 293 291 290 289 289 288 288 287 287 287 287 290 296 301 306 310 313 315 316 317 319 320 322 322 323
300 301 302 303 305 307 310 311 312 318 318 322 324 323 321 321 320 320 318 318 320 320 321 320 321 322 322 323 324 324 324 324 323 323 322 322 320 319 318 318 318 318 318 316 315 314 313 313 312 311 308 305 302 301 301 299 297 296 295 293 292 290 289 288 288 287 287 287 287 287 286 287 287 293 298 304 308 311 313 314 315 315 317 318 318
302 301 301 303 307 310 310 310 312 318 320 320 318 318 318 317 316 316 316 316 317 317 317 318 318 318 320 320 321 321 321 322 322 320 320 319 318 317 315 314 315 315 314 313 313 313 312 311 309 307 305 302 300 300 299 297 296 294 293 292 291 290 289 287 286 286 286 286 286 286 286 286 286 286 287 295 301 305 309 311 312 312 313 315 317
301 301 302 303 307 308 309 310 311 313 314 315 316 315 315 314 313 312 312 312 314 313 312 315 316 317 317 317 317 317 318 319 319 319 317 316 314 313 312 311 311 311 311 311 311 310 311 309 308 306 304 302 300 299 298 295 293 292 291 291 290 289 288 286 286 285 285 285 285 285 286 286 286 286 286 285 292 300 303 307 309 309 311 312 315
302 301 302 304 306 307 309 309 311 312 312 312 312 312 312 311 310 309 309 310 310 309 309 311 313 314 314 313 313 314 315 315 315 316 315 314 312 310 309 309 308 308 308 308 309 308 307 306 306 305 301 300 298 297 295 293 292 291 291 290 290 289 287 286 286 286 285 285 284 284 284 285 286 286 288 284 285 291 299 301 304 307 308 308 310
302 302 303 305 306 306 307 309 310 310 309 309 309 308 309 308 308 307 306 306 307 307 307 308 309 310 310 310 311 312 312 313 312 312 312 311 309 307 307 307 306 306 305 305 305 306 306 303 302 302 302 299 297 294 293 292 291 290 289 288 287 287 286 286 286 285 286 285 284 284 284 284 286 288 284 284 284 284 291 297 299 303 304 304 305
301 302 305 306 306 305 307 308 308 309 308 307 306 306 305 304 304 304 304 304 303 304 305 306 306 307 307 307 308 309 309 310 310 309 308 307 306 305 305 304 303 302 301 301 300 301 302 302 299 299 300 297 294 292 291 291 291 290 288 287 285 285 284 284 285 287 284 284 284 284 283 282 283 283 283 283 283 284 284 288 293 294 299 301 302
302 303 304 305 304 305 306 306 306 306 306 305 304 303 303 302 302 302 302 303 302 303 303 303 304 305 305 305 306 306 306 307 306 306 306 305 304 303 302 300 299 298 298 297 297 297 299 300 298 297 298 296 294 292 291 291 289 288 286 286 285 284 284 284 284 283 282 283 285 286 284 282 282 282 282 282 283 283 283 284 284 284 287 297 300
301 303 304 305 304 305 305 305 306 305 304 303 303 303 303 302 300 301 301 299 300 300 300 300 301 301 302 303 304 306 305 305 305 305 305 303 301 300 298 297 297 297 296 295 295 297 298 298 298 296 294 294 293 292 291 289 287 286 286 285 285 284 284 283 283 282 282 281 281 282 282 282 281 281 281 282 282 282 283 283 285 283 284 288 295
300 302 304 304 305 305 304 303 304 304 303 302 302 303 302 302 303 301 298 297 296 296 296 296 298 298 300 301 302 303 303 303 303 303 301 299 299 299 295 295 295 295 295 294 295 296 298 298 296 295 293 291 291 291 290 288 286 284 284 284 284 284 286 283 282 282 281 280 280 280 281 281 281 280 280 281 281 282 282 282 283 283 283 282 284
299 302 304 304 304 304 304 304 302 303 303 303 303 303 303 303 302 298 297 297 297 297 295 295 295 295 297 298 299 299 300 301 300 300 298 297 296 296 294 293 293 292 291 292 293 295 295 295 293 291 290 290 287 287 288 288 286 283 283 281 282 283 285 283 282 282 281 281 280 280 280 280 280 280 280 280 281 281 281 282 282 282 281 281 281
299 301 304 304 304 303 304 304 303 303 303 303 303 302 299 298 298 297 296 292 292 292 293 292 293 293 293 293 295 296 297 297 298 297 296 295 294 293 292 292 291 291 291 291 292 293 293 293 292 291 287 284 284 284 283 284 284 282 282 281 280 279 283 281 280 281 281 280 280 280 281 280 279 279 280 280 280 280 281 281 281 281 281 280 280
299 300 302 304 304 303 303 303 302 303 303 303 301 297 295 294 293 293 292 292 291 291 291 292 293 293 291 291 291 293 295 294 295 295 294 293 292 291 290 290 289 290 291 289 289 289 289 290 290 290 290 287 281 282 284 283 284 286 285 283 280 278 278 280 279 281 279 279 280 279 280 279 278 279 279 279 279 279 280 281 281 280 280 280 280
299 300 301 303 304 303 303 303 302 302 302 299 296 295 294 293 292 292 292 292 292 291 291 290 290 290 290 290 289 291 293 293 292 292 292 291 290 290 289 287 286 286 288 289 288 288 288 289 290 290 291 290 282 280 283 283 281 282 285 279 280 282 279 279 276 281 278 279 278 278 281 278 278 279 278 278 278 279 279 280 280 280 279 279 279
299 301 302 302 303 303 303 303 302 302 299 297 296 295 294 293 293 293 293 292 291 291 292 291 289 291 289 287 288 289 290 290 291 291 290 290 288 287 286 285 284 285 286 287 285 284 285 287 289 290 287 287 287 282 281 282 282 282 280 280 282 283 278 278 277 278 278 278 277 278 277 277 276 277 278 278 278 278 280 280 279 279 278 278 278
299 301 302 302 302 302 303 302 302 300 298 296 296 296 295 295 296 297 296 295 293 291 290 290 289 287 287 287 287 288 289 289 289 289 289 288 286 285 284 284 284 284 284 285 285 285 285 285 284 287 287 286 286 284 282 281 280 281 280 279 280 278 278 279 279 277 277 277 275 277 276 277 276 276 278 277 277 278 278 279 278 278 277 278 278
298 300 302 303 303 302 302 302 301 298 296 296 296 296 295 296 297 297 296 296 295 292 289 288 286 287 286 286 286 286 286 287 287 287 287 286 285 284 284 283 283 283 284 285 284 283 284 284 284 284 285 286 286 285 282 279 281 280 281 279 279 278 277 277 276 279 277 275 277 275 275 276 276 276 277 276 277 277 277 278 278 277 277 277 277
298 300 302 303 303 303 302 301 299 297 296 296 296 296 296 296 298 297 295 294 292 290 288 287 286 286 285 285 285 285 285 285 285 285 284 284 284 284 283 283 283 283 284 283 283 283 284 283 283 283 283 282 283 283 282 279 281 279 278 278 278 277 276 277 276 276 275 275 274 275 274 276 275 275 276 276 277 277 277 277 279 278 280 277 277
298 300 302 302 302 301 301 299 297 296 296 295 296 295 296 296 296 296 294 289 288 286 287 286 285 285 285 284 284 284 284 284 283 282 282 282 283 283 283 282 282 283 283 283 282 282 282 283 282 282 282 281 280 281 281 279 280 279 278 279 277 276 277 277 276 275 275 275 277 274 275 274 274 274 276 276 277 276 276 276 276 276 276 276 276
296 299 301 301 300 300 299 298 297 296 295 295 295 295 295 295 296 295 293 289 286 286 285 284 284 284 284 283 284 284 283 282 281 281 281 281 281 282 282 281 282 283 282 282 282 282 282 281 281 281 281 281 280 281 281 279 279 279 278 278 278 277 277 276 276 276 273 273 273 274 274 275 274 274 274 276 278 276 276 276 276 276 276 276 276
Wind_Speed
4 2 2 4 3 5 5 6 11 13 13 13 13 13 13 13 12 13 14 14 15 16 16 15 15 15 15 15 16 17 17 17 17 17 16 16 16 17 17 17 17 17 17 17 17 16 17 16 17 17 16 17 18 18 18 18 18 18 19 19 20 21 20 20 20 19 18 20 20 21 20 20 20 20 20 21 22 21 18 19 17 13 10 14 21
7 4 2 2 5 6 6 6 7 12 12 13 13 13 13 13 12 12 13 14 14 15 16 17 16 15 15 15 16 16 17 17 17 17 16 16 16 16 17 17 17 17 18 17 18 17 17 17 17 17 16 17 18 18 18 18 18 18 18 20 20 20 21 20 19 19 18 18 18 19 20 21 20 19 19 19 20 20 18 18 19 11 9 19 21
7 5 3 3 5 6 7 7 6 10 12 13 13 12 12 11 12 12 12 14 15 14 15 15 16 16 15 15 16 17 17 17 17 16 16 16 15 16 17 17 17 17 17 18 17 17 17 16 17 17 16 16 17 17 17 18 18 19 19 20 21 20 20 19 18 18 18 17 17 17 17 20 20 19 20 20 19 19 18 18 20 19 13 22 20
7 5 4 4 5 4 8 7 5 9 11 12 12 12 12 12 12 12 12 13 14 15 15 15 15 15 15 15 15 16 17 17 16 16 15 15 15 16 16 17 17 17 17 17 17 17 17 17 17 17 17 16 17 17 17 18 18 20 21 20 20 19 19 18 17 17 17 16 15 13 9 7 11 20 21 20 20 20 18 19 21 21 21 19 22
6 4 4 3 3 5 7 8 7 9 10 11 11 12 11 12 12 13 13 13 14 14 15 14 15 15 15 15 15 15 17 17 16 15 15 15 15 15 16 16 16 17 17 17 17 17 17 17 17 18 18 17 17 17 17 18 19 20 21 20 19 18 18 18 17 17 16 15 13 9 8 8 8 18 20 20 20 17 17 21 22 20 20 22 21
6 5 3 3 4 3 6 8 9 10 10 10 11 11 11 12 12 13 13 14 14 14 14 14 15 15 15 15 15 15 16 17 16 15 15 14 14 15 15 16 16 16 17 17 17 17 17 17 17 17 18 18 17 17 18 18 19 20 20 19 19 18 17 16 16 15 13 13 12 7 8 7 7 9 20 19 21 20 20 22 21 19 20 21 20
8 5 4 4 3 3 6 8 10 10 11 10 10 9 10 11 12 12 13 14 14 14 14 14 14 14 15 15 14 14 16 16 16 15 14 14 14 14 15 15 16 16 17 17 17 17 17 17 18 17 17 18 18 18 18 19 19 20 19 19 18 17 17 17 16 16 14 8 6 6 7 7 7 6 19 18 19 20 21 21 20 19 19 19 20
5 5 3 3 2 4 6 8 10 10 10 10 9 8 9 11 11 12 12 12 14 14 14 14 14 14 14 13 14 14 15 15 14 14 13 13 13 14 15 15 16 16 17 17 17 18 18 17 18 17 18 18 18 18 18 19 19 19 18 18 18 17 17 16 16 16 16 7 6 6 7 6 7 6 17 17 18 20 20 20 18 18 19 20 17
6 5 4 4 2 6 5 6 9 9 10 9 8 8 9 10 10 11 12 12 13 13 13 13 14 14 14 14 14 13 14 14 13 13 13 13 13 14 15 15 16 16 16 17 17 17 18 18 17 18 17 18 17 17 18 19 19 18 18 18 17 16 16 15 14 13 10 6 7 6 7 6 5 6 16 18 19 20 20 16 13 18 20 20 19
5 5 3 3 3 7 5 5 7 9 9 10 9 9 9 9 10 11 11 12 11 12 13 13 13 13 13 14 13 13 13 13 13 13 12 13 14 15 16 16 16 16 16 17 17 17 18 18 18 18 18 18 17 17 18 18 18 18 18 18 17 16 16 15 14 10 7 6 7 6 8 10 5 7 15 19 20 21 19 17 14 15 15 19 21
5 5 4 2 4 8 7 7 7 8 9 9 9 10 10 9 9 11 11 12 12 12 12 12 12 12 12 13 13 12 13 13 12 12 13 14 14 15 16 16 16 16 17 17 17 17 17 18 18 18 18 18 17 17 18 18 18 18 18 17 17 17 15 14 11 6 7 7 6 6 9 14 6 7 16 19 20 20 17 17 17 17 19 20 21
5 5 4 4 6 8 9 6 9 7 8 9 9 9 9 9 9 10 11 11 11 11 11 11 11 11 12 12 12 12 12 12 12 12 13 14 14 15 16 16 16 17 17 17 17 17 17 18 18 18 18 18 18 18 18 18 18 17 17 17 16 15 14 13 8 7 7 7 7 6 6 6 7 11 19 19 19 19 19 18 18 19 19 20 20
6 4 4 3 4 6 9 8 7 7 8 9 9 9 9 9 9 9 10 10 10 10 10 10 10 10 11 11 11 12 12 12 12 13 13 13 14 15 15 16 16 16 16 17 17 17 17 18 18 19 18 18 18 18 19 18 17 17 17 16 16 15 14 14 7 8 7 7 6 7 6 6 8 17 18 19 20 19 19 18 18 18 19 19 19
4 4 4 3 3 5 8 8 8 7 7 7 7 8 9 9 8 9 9 10 10 10 10 10 9 9 10 10 11 11 11 11 12 12 12 13 13 14 15 15 16 16 16 17 17 17 18 18 19 19 18 19 19 19 19 18 18 18 17 17 16 15 14 10 9 7 8 7 7 6 5 6 8 17 18 19 19 19 18 19 19 19 18 18 18
5 4 4 4 3 3 6 7 6 6 6 7 7 5 8 8 9 8 9 8 9 9 10 9 9 9 10 10 10 10 11 11 11 12 12 12 13 14 14 15 16 16 16 17 17 17 17 17 18 18 18 18 18 18 18 18 18 18 17 17 16 16 14 8 7 7 7 7 6 6 5 5 15 18 19 19 19 18 18 19 19 19 17 18 18
5 4 4 3 3 3 4 3 6 5 5 7 8 6 6 6 5 7 8 8 9 9 10 10 9 9 9 9 10 10 10 10 11 12 12 12 13 14 15 15 16 16 16 17 17 17 17 18 18 18 18 18 18 18 18 18 18 17 17 16 15 15 14 9 7 7 7 7 7 6 5 5 16 18 18 19 18 17 16 17 18 18 18 18 17
5 4 4 3 3 2 3 3 3 5 3 4 6 5 3 6 6 6 7 7 7 8 10 9 10 10 9 9 9 8 8 9 11 12 12 12 13 14 14 15 16 16 17 17 17 17 18 18 18 18 18 18 19 19 19 19 18 17 17 16 16 16 14 11 8 7 7 8 7 7 7 6 14 17 17 17 16 17 19 18 16 16 16 17 18
4 3 6 4 6 3 5 3 4 3 3 3 6 7 2 5 5 5 6 6 7 8 7 7 8 8 8 7 8 8 8 8 10 12 11 11 13 14 15 15 16 16 17 17 17 17 17 18 18 18 19 19 20 20 20 19 19 18 18 17 17 16 14 12 8 7 8 8 8 6 6 12 17 18 19 19 19 19 19 20 19 17 16 16 16
5 6 5 7 6 5 5 4 2 3 3 2 4 3 2 3 5 2 4 7 7 8 8 6 8 8 7 8 7 7 7 9 10 10 8 10 11 12 14 14 15 16 16 16 17 17 17 17 17 18 18 19 20 20 19 19 19 18 18 17 16 15 15 9 8 8 8 7 7 7 8 16 16 17 19 20 21 21 20 20 20 19 16 15 15
4 4 4 6 4 5 5 4 1 3 1 3 5 2 3 6 5 4 3 6 6 7 8 9 9 9 8 8 8 7 7 8 11 8 9 10 10 9 11 12 14 15 15 16 16 16 17 17 18 18 18 18 19 19 19 19 18 18 17 16 15 14 9 7 8 8 7 7 7 7 12 16 18 17 17 19 20 21 21 19 20 21 20 18 18
3 3 3 5 3 6 6 2 4 3 2 3 3 3 4 6 5 6 4 6 7 7 9 9 8 8 7 7 7 5 5 5 6 5 8 7 9 10 10 11 13 13 14 15 15 16 17 17 18 18 18 17 16 17 18 18 17 17 17 15 13 10 7 8 8 7 7 7 7 7 15 16 18 18 18 18 19 20 19 18 18 19 21 21 21
2 3 4 4 4 5 5 3 3 4 3 1 3 3 3 3 5 5 4 5 4 8 7 6 5 4 6 6 4 5 4 4 5 5 5 6 8 11 10 11 11 11 12 13 14 16 16 16 16 17 16 15 14 9 9 13 17 16 16 14 10 7 8 8 8 8 8 8 7 10 17 17 18 18 18 18 19 19 19 19 19 19 21 21 21
3 2 2 4 3 2 2 2 1 2 1 2 4 4 3 2 5 4 4 5 5 5 4 6 4 5 4 4 4 4 4 5 4 5 6 7 9 11 10 11 11 11 11 12 14 15 16 16 16 15 15 13 9 7 7 7 8 12 11 9 8 7 8 9 8 8 8 8 8 14 16 19 19 19 19 19 19 19 20 20 20 20 21 21 22
3 2 2 2 2 1 1 1 1 1 2 2 1 3 3 3 4 4 4 5 5 5 5 5 4 3 4 5 4 3 4 3 5 7 7 5 7 10 11 12 14 13 12 9 11 13 15 15 14 13 9 6 7 7 7 7 7 7 7 7 8 8 9 7 7 7 8 9 10 19 16 19 19 19 19 19 19 19 19 20 20 21 22 22 23
2 1 0 1 1 1 1 0 1 1 2 1 2 3 2 4 3 4 4 5 5 4 4 5 5 4 4 4 4 4 4 4 4 3 5 5 5 5 5 6 6 7 9 6 6 7 7 7 7 7 6 7 8 7 6 7 7 7 7 7 7 7 8 7 7 7 7 8 11 19 21 21 20 19 18 18 19 19 18 19 20 20 20 21 22
0 3 3 2 1 1 1 2 1 0 0 2 1 2 2 4 3 6 5 5 5 5 5 5 5 4 4 4 4 5 4 4 4 4 5 6 5 5 5 5 6 6 6 6 5 6 6 6 6 7 6 6 8 7 6 7 7 7 7 7 7 8 7 7 7 7 7 8 11 18 20 20 19 18 19 18 17 17 17 19 18 19 20 20 20
2 3 1 2 1 1 1 1 3 3 3 3 1 1 3 4 5 5 8 5 4 5 4 4 5 5 5 5 5 4 5 4 5 5 5 6 5 5 5 5 6 6 6 7 6 5 6 6 7 7 6 8 8 7 7 7 7 8 8 8 7 8 8 7 7 7 7 7 10 19 19 20 19 19 19 18 18 19 18 18 18 18 18 19 19
3 5 2 2 1 1 1 1 3 4 4 2 2 3 3 5 5 5 4 6 6 4 5 4 5 5 5 5 5 5 5 5 4 4 5 5 6 5 5 5 5 5 5 7 7 6 6 6 7 7 7 7 9 7 7 7 8 7 9 7 7 7 7 7 7 7 7 7 9 15 20 21 20 20 21 20 20 20 19 18 19 19 21 20 19
5 4 3 2 2 2 1 2 2 3 4 3 4 4 3 4 4 4 4 5 5 4 5 5 5 3 5 7 5 5 5 5 5 4 3 5 5 5 6 4 5 6 6 6 7 7 7 7 7 6 6 7 7 8 7 8 7 7 8 8 7 7 7 8 7 7 7 7 8 13 20 21 22 22 22 22 22 21 21 22 21 20 21 22 21
5 3 3 3 2 1 1 2 3 2 4 5 5 4 3 4 4 4 5 5 4 6 4 5 5 4 4 6 5 5 5 5 5 5 5 5 5 4 6 5 5 5 7 7 5 7 7 7 7 6 8 7 8 7 8 8 8 7 7 7 7 7 7 8 7 7 6 7 8 10 19 20 21 22 22 23 24 23 23 23 22 21 23 23 22
3 4 3 2 2 1 2 2 3 3 3 5 5 4 4 4 3 3 4 5 5 5 4 5 5 4 4 6 6 5 5 5 6 6 5 5 5 5 5 5 5 3 6 7 5 7 7 6 7 7 7 7 7 7 8 9 7 8 7 8 7 7 8 7 7 7 8 7 7 7 11 19 21 21 22 22 22 23 24 23 21 21 21 21 23
4 4 3 2 0 1 2 3 4 3 4 6 5 5 5 4 4 3 4 2 7 4 4 5 5 4 3 5 6 5 6 5 6 5 6 6 5 5 5 6 5 5 5 8 7 6 7 7 7 7 8 7 7 8 8 8 8 7 7 8 7 8 7 6 7 7 7 7 7 7 8 9 17 21 21 22 22 23 22 22 22 22 23 24 24
4 4 4 3 2 1 2 4 3 4 6 6 4 3 4 5 5 3 4 1 4 5 4 5 4 4 5 3 5 5 5 6 5 6 6 6 6 6 5 5 5 5 6 7 10 7 8 8 8 7 8 8 9 8 8 8 8 7 7 7 7 8 6 6 6 7 7 7 7 7 7 8 8 14 20 21 22 23 22 22 22 22 22 23 22
5 4 3 3 3 2 2 2 3 4 5 3 3 4 3 5 5 2 5 4 1 5 3 5 5 4 5 5 5 5 4 5 6 6 5 5 6 6 6 6 5 7 7 7 8 7 9 9 8 8 7 8 8 7 8 9 7 7 7 6 7 7 6 7 7 7 6 7 6 8 7 7 8 8 9 17 21 21 22 22 22 22 22 22 22
3 4 4 4 3 2 1 1 1 3 4 4 4 4 3 6 6 4 3 4 1 4 3 3 4 4 5 6 5 6 4 3 6 7 6 6 6 6 6 6 6 6 8 6 8 6 6 8 8 9 8 8 8 7 8 8 8 9 7 6 7 6 6 7 6 7 7 6 7 7 8 7 7 7 7 8 12 19 21 21 21 22 22 22 22
6 5 4 3 2 2 1 2 2 4 4 4 4 4 3 5 5 5 4 4 0 4 4 3 4 4 5 6 5 6 4 4 5 5 8 6 7 7 6 5 8 7 7 7 8 8 7 6 5 9 11 8 9 8 7 8 8 9 7 6 5 5 6 6 6 6 5 6 7 7 7 7 7 7 7 7 7 10 20 19 21 21 22 22 22
5 5 5 3 3 2 2 3 4 5 5 5 5 5 4 6 6 6 5 3 0 5 5 2 4 4 4 5 7 5 4 6 5 6 7 7 5 7 6 7 7 8 7 7 7 6 8 6 6 5 10 10 10 10 8 8 8 8 6 6 6 5 6 6 6 5 4 8 7 7 7 7 7 8 7 7 7 7 12 18 18 20 21 22 22
5 5 5 5 4 3 3 3 3 5 5 5 5 5 4 5 4 5 7 5 3 4 4 3 3 3 4 7 6 5 4 6 7 7 6 5 6 7 7 7 7 7 8 7 7 6 6 8 8 6 7 10 9 10 9 8 7 6 7 6 6 6 6 6 5 4 6 7 7 7 6 6 7 7 7 7 6 7 7 11 15 16 19 20 22
5 6 5 4 3 4 4 4 5 5 6 5 7 6 5 6 3 7 7 5 4 4 5 4 1 2 4 7 7 4 4 6 6 7 7 6 6 6 7 7 6 7 8 7 7 7 6 6 11 8 7 6 9 9 10 8 8 6 7 6 5 6 5 5 5 6 6 5 5 5 5 7 6 7 7 7 6 6 7 7 7 7 10 20 20
6 6 6 5 5 5 4 4 5 5 6 4 6 4 5 6 4 7 6 4 3 4 5 4 2 4 3 7 6 2 4 7 5 7 7 6 6 6 8 7 6 7 8 9 7 7 10 10 11 13 11 9 7 9 9 11 8 8 6 6 5 5 6 5 6 6 5 6 5 5 7 5 7 7 7 6 6 7 7 6 6 6 7 12 19
7 7 7 7 7 7 7 7 6 7 6 7 6 7 7 5 2 4 7 3 3 3 4 2 4 4 5 7 5 4 4 7 5 8 8 7 7 6 6 7 5 6 7 7 7 7 7 10 9 9 14 11 7 5 4 5 11 6 6 5 6 4 4 5 6 6 6 5 5 6 5 7 7 7 5 5 7 7 7 7 6 6 7 6 9
9 8 10 9 8 7 8 7 6 7 6 8 7 6 3 4 6 5 5 4 4 4 4 2 3 5 5 6 5 3 3 6 5 7 8 8 8 6 5 7 7 7 7 7 7 8 10 10 11 7 3 11 6 1 0 3 4 6 7 3 3 3 3 5 6 6 5 6 5 6 6 7 7 5 5 6 7 7 6 6 6 6 6 7 7
9 10 8 9 9 8 8 8 7 8 7 7 6 5 3 2 4 6 6 5 3 3 4 3 2 5 6 5 4 3 3 5 4 6 7 6 7 7 6 6 7 9 9 8 8 8 9 10 10 12 8 4 5 2 2 1 5 4 3 6 1 2 1 2 2 4 5 4 4 6 5 6 6 4 4 7 6 6 5 5 6 6 7 7 7
9 9 10 11 9 8 8 9 8 7 8 6 6 6 7 7 8 7 6 3 4 5 4 4 4 6 7 5 4 2 4 4 4 6 6 6 6 8 7 7 7 6 9 9 8 9 7 7 7 10 12 10 3 2 3 1 4 8 3 1 3 3 1 1 0 1 0 2 6 5 4 4 4 4 6 8 6 5 5 5 6 6 7 7 7
10 11 11 11 9 10 9 9 8 8 7 7 7 6 8 8 6 7 7 8 6 5 5 5 4 5 5 4 3 2 4 4 4 5 6 7 6 7 8 7 7 5 7 9 8 9 7 7 10 10 10 12 5 3 4 4 3 1 6 4 2 0 2 2 1 1 2 1 4 4 4 5 5 5 6 5 3 4 3 5 5 5 6 6 6
12 11 10 10 8 9 9 9 8 7 7 9 10 9 7 8 7 8 7 4 5 5 6 8 6 6 5 3 3 2 3 4 4 5 6 7 8 7 8 8 7 6 6 8 8 7 7 8 7 9 7 4 10 6 4 3 4 5 3 1 2 2 5 2 2 1 1 1 1 1 2 3 3 4 4 4 5 4 3 5 4 6 6 6 5
12 8 8 8 8 9 9 9 9 7 7 9 9 8 10 8 11 10 10 10 10 4 2 3 6 5 5 5 4 2 2 5 5 5 6 6 7 7 7 7 7 7 6 8 8 8 7 7 5 6 8 8 8 8 9 5 3 5 4 4 6 3 4 5 2 2 1 1 1 1 2 4 2 4 4 4 3 4 3 3 4 5 6 6 6
7 7 7 8 10 10 10 10 8 8 7 8 9 9 10 9 7 6 6 8 10 10 8 6 5 7 7 6 4 2 3 3 5 6 5 6 7 7 7 7 8 6 7 7 9 7 6 4 5 6 7 7 9 11 8 7 7 2 1 4 6 6 5 6 3 2 3 1 0 2 1 5 4 4 3 3 4 4 4 4 4 5 6 6 6
8 10 10 10 8 8 9 9 8 8 8 10 10 9 8 9 9 7 6 1 3 5 6 5 7 7 7 5 5 3 3 4 3 5 4 5 6 8 7 8 8 7 6 7 6 7 10 10 9 8 8 5 5 7 9 6 7 6 5 4 5 5 5 4 3 5 3 1 2 0 3 4 2 0 2 2 3 3 3 3 3 4 5 5 5
8 7 7 8 9 8 10 11 10 9 9 10 10 10 9 8 8 9 10 7 7 6 5 7 7 7 7 5 5 4 3 4 3 4 5 4 6 7 7 8 8 8 7 8 8 8 7 8 8 8 8 8 4 6 8 7 6 6 4 6 4 2 4 3 4 5 4 2 2 1 2 1 2 4 1 3 4 3 3 3 4 4 5 5 4
6 8 9 10 9 10 11 12 11 9 10 11 11 11 8 8 9 10 10 12 11 10 9 6 6 6 6 6 6 5 4 5 5 3 4 4 5 5 7 7 7 7 8 8 9 9 8 8 7 8 8 10 7 8 7 5 6 5 4 6 6 6 6 3 5 2 3 1 2 0 2 4 2 4 3 4 4 2 2 3 4 4 4 4 3
Wind_Direction
198 161 177 167 164 117 91 88 111 116 116 111 108 106 104 98 97 95 94 90 88 89 89 87 88 90 91 92 89 85 82 80 74 69 64 60 59 58 57 60 61 61 62 63 64 65 66 67 68 68 72 69 66 64 62 64 67 68 66 66 64 63 61 57 55 53 48 49 51 54 55 57 57 57 57 56 52 50 48 47 44 39 38 39 39
166 171 175 171 175 134 114 100 101 117 114 109 106 104 103 102 97 94 93 93 90 86 86 90 90 88 91 92 89 87 85 79 73 68 63 60 58 58 58 59 61 62 63 64 65 66 67 67 68 69 71 71 67 64 65 68 70 70 69 67 66 64 63 60 55 52 50 47 48 50 52 54 56 57 56 58 59 53 49 49 46 41 36 37 35
139 151 171 174 185 151 126 127 122 122 114 110 104 103 103 101 100 95 91 91 90 88 88 87 84 85 85 86 87 86 86 81 75 70 65 62 60 58 58 60 61 63 64 65 66 67 68 71 71 72 73 73 69 68 70 72 73 72 69 66 65 63 61 57 54 52 50 49 48 47 46 51 53 54 53 53 57 56 53 51 50 44 36 34 33
146 161 162 175 191 181 144 134 130 116 110 105 108 109 109 108 105 101 95 92 91 90 89 88 90 89 87 86 87 90 87 84 79 74 68 64 61 60 60 60 62 64 65 66 67 67 68 71 74 76 76 76 75 73 73 77 77 76 70 67 65 62 60 56 54 54 51 48 44 45 42 28 44 51 51 49 49 49 51 54 50 45 38 34 33
150 152 157 171 187 213 155 145 134 120 109 108 112 113 114 113 109 105 100 97 96 94 92 90 91 90 89 87 88 91 92 86 80 74 69 65 62 60 61 62 64 65 67 67 67 67 68 70 75 78 78 78 76 76 78 79 79 77 75 72 69 64 61 58 57 55 51 49 46 46 40 36 37 48 52 55 55 49 52 53 49 43 37 34 32
156 147 152 188 199 209 165 145 131 120 112 112 114 119 119 114 111 109 105 103 100 96 93 92 90 90 90 88 85 86 87 85 81 75 71 67 62 61 61 63 65 66 68 69 68 69 70 72 75 78 80 79 77 79 81 81 80 77 75 73 71 67 62 57 57 54 51 49 46 46 41 39 41 45 48 49 52 49 50 51 47 43 39 37 36
151 148 156 174 188 186 159 146 133 129 126 125 125 120 117 116 114 110 107 104 100 97 96 95 92 91 92 90 87 88 90 85 82 79 74 69 65 61 60 63 66 68 70 71 71 71 71 72 75 78 80 79 78 81 82 81 79 76 74 72 68 65 62 61 57 54 50 46 42 40 40 40 42 46 50 48 47 47 47 49 46 43 43 43 40
137 145 153 156 169 174 166 144 140 138 133 128 122 110 118 118 113 109 104 102 98 97 98 97 98 98 96 93 93 94 86 84 83 80 76 72 67 63 61 62 66 68 70 71 73 73 74 76 77 78 79 79 80 81 81 81 79 77 75 72 71 67 64 61 58 56 53 41 36 44 45 37 42 50 52 51 50 49 48 47 45 45 45 44 43
142 142 145 143 136 143 134 136 140 139 133 125 116 113 112 116 113 109 105 102 101 99 99 99 99 99 98 98 97 93 91 89 86 83 79 72 66 62 60 60 63 66 67 70 72 75 77 79 79 79 80 81 82 83 83 84 82 78 77 75 73 69 67 64 60 58 55 46 40 45 51 45 42 52 53 56 55 54 53 50 45 47 46 45 43
133 140 149 132 151 145 140 155 145 141 138 131 128 126 122 121 119 115 110 106 103 102 99 100 103 105 106 105 104 100 97 93 88 83 76 68 62 59 57 56 58 62 64 66 68 72 75 77 78 78 78 81 83 82 80 81 80 78 77 76 73 70 66 62 58 52 52 49 42 37 54 57 47 53 60 61 61 59 57 55 54 51 48 48 44
134 143 139 146 155 150 156 160 148 150 147 138 139 134 131 130 127 121 116 114 109 107 107 105 109 110 108 106 106 106 100 94 87 80 73 66 60 57 55 55 57 58 62 63 66 69 73 75 76 77 79 80 81 80 81 81 78 74 74 72 70 68 63 60 56 47 44 44 43 38 49 55 50 60 63 64 63 62 59 58 56 54 50 48 47
138 142 140 148 164 157 170 171 156 156 151 145 144 138 135 133 129 127 123 122 119 112 110 109 109 112 112 111 109 104 98 92 85 78 71 65 60 57 56 56 57 59 60 62 64 69 73 73 74 75 77 79 79 79 78 76 73 70 68 66 64 61 58 56 51 46 41 38 37 35 38 42 53 62 64 63 63 62 61 58 54 54 53 51 50
136 138 138 148 158 172 155 181 154 159 159 149 150 142 139 138 135 131 129 127 122 117 109 107 107 109 110 110 110 105 102 97 89 80 73 67 61 59 59 58 59 61 63 64 65 68 72 72 72 73 76 75 74 73 72 70 66 64 61 59 56 55 54 49 43 41 35 31 31 29 39 48 57 62 63 63 61 61 60 59 57 56 54 53 52
118 125 129 145 150 169 159 166 157 162 158 138 153 147 144 141 140 137 133 128 125 120 119 114 111 108 107 108 108 107 106 103 96 89 82 74 66 63 62 62 63 65 67 68 69 70 72 71 70 73 74 72 69 66 65 63 62 60 58 55 51 48 45 43 38 35 33 26 22 22 29 49 61 61 61 60 61 61 58 57 55 54 54 54 53
122 121 119 136 132 167 164 150 151 153 142 140 146 150 147 140 145 141 137 132 129 126 126 123 116 115 115 115 115 115 113 110 106 97 90 82 73 68 66 66 69 71 71 73 75 74 73 72 72 71 70 69 68 67 65 64 63 61 59 57 53 50 48 46 39 33 30 26 19 18 13 48 63 60 57 57 59 60 58 54 54 55 52 51 52
109 116 122 118 131 121 149 131 134 152 147 145 142 151 146 141 140 136 130 128 132 136 133 130 124 118 114 123 123 122 120 114 108 102 94 86 78 71 69 69 71 73 74 76 77 76 76 75 75 74 73 72 71 70 69 68 66 64 62 59 55 52 49 51 41 33 28 25 21 20 10 37 55 61 60 58 58 58 58 57 53 53 55 51 48
95 135 107 95 85 132 116 108 116 133 148 133 106 112 123 137 120 109 119 132 130 133 138 136 130 130 132 129 121 119 117 115 106 99 95 90 84 79 77 75 74 73 75 76 76 75 76 76 77 77 76 74 72 72 70 68 66 63 59 57 55 51 48 48 43 30 30 25 20 16 20 25 45 57 58 57 56 54 49 49 54 54 53 52 50
48 72 87 54 61 0 76 61 112 119 134 129 105 106 159 112 111 122 119 126 127 126 128 138 133 125 118 113 116 119 115 104 110 110 105 95 91 88 85 81 78 77 78 78 78 76 76 77 77 78 77 75 73 70 68 65 62 59 57 55 53 51 48 47 42 31 27 24 21 11 28 42 45 50 51 48 50 48 49 46 45 46 47 50 54
59 55 59 62 48 26 49 22 64 102 124 116 99 86 116 135 112 126 117 129 130 126 136 110 108 105 107 109 106 103 102 102 110 113 103 93 91 93 93 89 84 82 81 81 79 79 79 79 78 78 78 77 75 71 68 65 63 61 60 58 55 52 47 43 39 32 27 23 16 22 43 52 50 50 49 51 53 51 52 52 51 48 50 52 49
65 68 79 79 58 76 57 22 38 55 127 130 95 120 147 134 136 116 97 114 132 126 118 113 113 117 117 116 112 103 94 95 110 112 107 101 97 96 99 96 91 87 85 85 83 83 83 82 80 78 76 76 73 70 68 67 66 64 63 60 57 52 46 43 40 37 29 21 18 29 40 52 53 50 50 46 48 48 43 43 46 48 49 50 46
60 66 65 98 82 75 66 33 37 41 6 120 114 135 137 145 129 140 136 82 111 126 116 113 119 124 125 119 115 105 101 108 102 105 101 106 104 98 99 98 94 91 90 87 86 86 86 85 83 81 79 76 71 67 66 66 65 64 63 60 56 52 47 46 43 38 31 22 21 38 44 49 53 51 49 46 47 48 45 43 46 47 51 53 51
67 46 15 29 65 60 55 40 31 46 350 165 149 129 144 152 140 143 151 108 103 132 127 121 129 119 128 128 117 102 83 99 106 111 115 116 102 104 102 101 97 92 90 90 90 91 89 87 86 84 81 77 73 66 60 60 60 61 60 56 53 50 43 45 43 36 31 18 16 41 52 53 53 53 52 51 51 51 49 47 45 45 43 45 46
142 104 39 20 47 54 80 64 337 36 32 241 144 126 147 148 149 150 137 125 142 124 128 130 137 137 134 123 111 118 114 105 107 130 131 122 114 109 104 98 91 85 86 89 92 90 88 88 86 85 81 76 72 73 69 63 57 53 52 52 55 47 45 41 42 36 28 22 16 31 54 54 53 53 53 51 52 53 52 50 50 50 48 45 43
161 139 104 350 22 89 93 161 74 347 47 331 72 111 144 148 169 140 140 135 144 138 143 131 129 132 134 136 115 100 113 102 115 121 116 112 110 100 95 89 83 77 73 71 70 75 81 79 80 80 77 71 73 70 73 67 63 59 59 56 57 50 48 42 42 35 30 23 24 24 42 48 50 51 51 51 50 50 52 52 50 51 51 48 45
162 42 234 271 2 342 345 346 50 350 40 303 103 139 206 156 162 147 152 151 143 142 131 133 131 141 132 135 136 134 120 99 121 135 132 122 117 113 101 94 91 87 84 80 85 81 80 82 70 67 70 75 75 67 72 73 65 63 60 57 59 56 53 46 42 41 30 27 26 29 35 38 44 49 49 52 52 50 48 50 51 49 50 51 48
32 167 199 219 235 324 323 312 328 294 104 295 116 138 174 198 184 164 155 149 157 148 148 145 146 153 147 144 132 132 129 137 150 154 140 135 133 125 115 110 100 98 98 94 85 92 86 87 80 78 74 75 80 78 70 74 77 68 62 56 55 55 52 47 42 43 34 31 26 27 40 42 43 46 48 49 51 49 50 50 50 49 47 49 50
192 229 247 249 285 311 300 313 261 205 189 243 303 246 187 203 188 184 162 157 147 156 154 155 158 163 156 155 148 142 142 155 157 164 154 143 139 128 123 114 112 112 113 108 97 88 92 89 88 86 88 89 83 79 77 72 69 76 67 59 56 55 53 48 43 41 36 35 27 28 38 45 45 50 49 47 46 48 49 49 48 52 50 49 49
172 222 241 238 264 277 291 320 285 300 238 194 252 247 205 208 191 180 182 148 142 159 151 158 150 153 153 157 151 149 150 154 158 163 157 146 142 136 120 116 116 119 116 117 115 104 98 92 94 89 91 84 87 79 76 75 69 69 75 62 59 57 55 53 48 42 40 39 36 30 41 47 50 53 49 48 47 48 50 47 48 52 53 53 53
201 217 224 229 249 252 311 280 265 266 264 257 231 235 209 203 174 175 160 145 144 157 156 155 132 139 155 142 147 148 150 152 155 151 158 138 136 142 129 130 128 127 121 115 118 117 107 104 99 102 98 92 89 84 80 75 74 64 71 69 62 59 58 57 50 44 43 46 42 32 41 44 53 54 52 51 50 50 53 48 48 53 54 55 53
207 193 199 223 271 276 289 280 266 252 264 244 228 218 201 191 163 175 152 140 152 153 162 152 121 151 165 136 151 156 156 150 144 142 149 132 135 132 139 138 131 133 124 123 123 120 119 113 105 104 100 98 94 92 89 81 75 73 64 72 64 61 61 59 52 47 50 48 44 39 37 43 44 52 55 55 52 49 45 44 43 46 51 53 51
181 208 204 228 248 319 293 279 277 243 253 243 219 208 175 178 139 153 128 146 138 147 167 129 136 154 160 142 149 155 145 144 145 144 135 133 130 125 124 118 112 115 126 122 123 123 118 116 114 117 109 106 101 97 94 88 81 76 67 70 64 64 62 57 55 51 52 47 47 46 38 39 44 44 49 53 55 53 52 53 52 48 47 49 47
188 210 202 212 233 257 284 273 253 233 227 238 215 190 168 153 123 121 109 158 132 149 124 127 134 139 129 144 143 146 141 143 144 142 139 135 128 121 119 116 116 112 115 125 121 116 111 109 108 109 106 103 97 93 88 92 87 79 75 71 68 66 61 56 55 53 54 49 48 45 43 37 38 42 42 47 51 51 51 50 49 48 45 44 45
208 186 194 186 199 239 252 262 244 200 208 223 195 163 156 132 110 125 114 134 126 126 131 124 121 121 108 113 124 130 142 145 143 139 134 132 124 116 106 105 115 115 108 109 113 109 106 105 102 107 101 101 95 91 89 86 84 80 77 69 72 67 59 56 54 53 51 49 46 46 45 40 38 35 36 40 44 48 48 48 47 47 47 48 47
184 197 167 178 188 221 220 253 247 187 197 177 129 134 169 111 111 90 110 89 65 121 125 122 116 114 115 95 97 97 116 136 130 119 118 112 109 109 113 106 105 111 109 113 111 119 116 113 117 107 104 101 98 97 97 88 82 79 72 70 68 67 63 60 50 51 50 49 47 48 43 42 39 39 32 32 36 42 44 46 46 46 45 45 45
176 175 173 186 182 210 229 246 110 116 127 124 127 122 138 118 119 90 79 80 85 98 85 87 105 112 98 97 96 97 84 109 125 130 117 114 107 104 104 115 111 104 107 108 113 101 106 119 126 109 101 94 94 90 92 89 91 84 72 66 65 60 57 60 52 48 47 46 49 46 43 42 39 41 34 36 25 33 40 42 44 44 44 44 44
184 177 174 158 187 181 185 153 121 119 108 106 106 107 108 106 104 98 75 72 59 103 85 76 97 101 107 100 95 89 106 90 102 114 118 118 125 117 116 116 111 104 101 107 108 111 108 100 95 118 110 98 97 89 84 90 85 81 70 60 55 50 60 54 50 51 37 52 49 45 43 41 40 40 39 36 36 25 36 39 41 42 44 43 44
177 168 170 172 193 172 148 153 146 130 118 104 97 94 90 99 86 102 85 65 239 103 86 65 93 106 111 110 96 87 113 110 105 106 113 117 114 117 126 116 113 111 108 102 101 111 115 104 79 65 111 116 104 97 86 87 83 76 68 65 47 51 54 49 46 43 42 54 46 44 42 38 39 40 37 38 35 31 30 38 39 39 40 43 43
180 170 171 178 189 175 162 149 131 128 123 117 99 96 73 82 88 89 81 70 28 69 80 75 91 119 143 105 99 120 122 118 115 110 103 108 120 123 119 113 116 112 107 102 101 98 104 116 94 67 89 110 111 109 102 89 84 80 70 60 51 52 49 48 44 39 49 49 46 46 40 41 42 39 38 38 37 34 35 31 36 35 35 41 42
177 173 171 182 168 166 149 147 139 135 119 108 109 90 87 73 72 91 78 68 49 38 68 57 53 168 104 105 98 101 129 108 114 116 115 117 115 113 115 116 122 118 113 110 105 102 102 107 108 90 65 75 112 107 109 105 91 82 72 55 56 51 46 49 49 51 45 44 50 46 49 37 45 38 38 37 33 39 38 35 33 35 28 37 40
180 177 174 175 178 170 160 151 154 137 123 111 122 109 109 105 116 106 83 64 51 64 76 89 93 69 84 92 95 95 114 105 117 116 110 113 115 123 120 116 119 120 118 117 120 126 124 114 110 109 100 82 77 105 111 109 88 79 76 59 51 52 48 50 53 49 45 39 36 44 47 40 45 38 37 31 37 38 41 38 41 36 35 32 36
185 183 176 183 186 180 166 173 162 150 152 144 141 150 136 121 91 97 125 107 79 72 77 62 103 85 70 87 86 87 102 111 118 123 118 109 100 95 112 111 112 109 113 120 126 121 119 119 112 113 120 111 91 97 96 103 111 71 56 63 53 37 51 53 52 42 37 27 29 50 36 48 38 39 25 35 42 39 39 39 39 41 37 37 31
197 184 184 184 184 178 181 170 165 163 167 157 156 165 185 173 153 154 132 131 139 126 104 21 66 81 71 86 82 77 104 115 125 120 121 131 128 125 121 115 114 103 101 113 115 121 123 122 120 89 51 120 121 73 114 77 54 137 131 90 37 26 66 57 51 34 29 24 27 47 42 50 43 31 23 46 43 41 39 37 43 42 41 42 37
178 188 184 175 184 184 186 170 174 167 168 162 164 165 132 91 123 135 135 110 40 57 77 69 54 96 77 56 72 79 100 102 120 118 127 129 129 129 121 115 116 123 121 118 125 127 135 138 138 131 116 42 97 48 27 52 132 121 108 95 153 72 302 12 11 36 23 21 24 46 46 52 41 30 31 51 41 35 36 35 44 43 41 42 39
184 185 186 184 183 188 184 175 174 168 165 165 137 90 91 91 81 101 89 71 129 104 99 94 75 78 67 54 43 70 84 102 117 122 117 119 129 126 121 118 125 138 133 133 136 135 137 129 129 133 131 127 110 51 27 28 132 138 126 133 189 121 51 256 59 290 63 22 40 27 39 54 43 35 42 48 33 35 37 38 47 43 44 43 40
192 189 186 185 185 185 179 174 169 172 164 148 133 122 112 84 89 84 92 94 78 98 107 60 42 57 83 65 26 23 98 113 109 118 127 127 124 124 122 123 125 132 134 134 143 148 148 146 145 141 151 143 138 125 30 36 58 26 143 112 67 117 205 204 111 204 11 29 9 8 26 37 43 46 52 43 37 44 43 48 44 48 47 44 41
197 194 187 182 174 175 174 173 170 170 156 149 145 143 141 135 138 136 141 136 137 149 157 155 160 145 136 123 51 16 112 116 115 116 120 128 127 125 125 128 127 130 134 131 132 127 138 144 160 141 122 117 135 121 103 41 77 58 61 125 162 168 170 208 110 224 325 138 308 304 348 42 60 66 60 51 40 34 38 54 47 50 48 45 39
203 178 176 177 170 170 177 174 174 165 155 152 156 152 153 160 164 164 161 164 158 184 120 130 134 97 96 107 91 26 81 129 116 121 124 125 123 123 125 125 128 129 134 130 136 144 145 143 142 126 136 132 128 123 137 158 126 50 46 71 71 58 124 136 189 100 88 317 356 337 326 2 63 77 62 59 41 46 34 53 51 54 52 44 38
175 172 174 171 177 177 176 175 167 163 160 158 162 168 162 169 170 172 178 173 165 161 166 150 121 112 110 116 109 66 74 110 127 121 128 129 126 121 125 127 129 138 140 137 139 143 125 106 116 123 126 136 140 137 149 169 134 120 39 73 72 65 58 76 93 144 150 150 276 320 287 334 17 43 58 66 45 43 44 37 50 52 52 45 37
175 182 182 176 175 171 172 170 166 162 167 169 167 176 178 172 168 158 163 117 93 124 126 128 131 121 123 128 116 111 108 94 108 125 129 132 132 134 133 132 134 140 133 128 139 147 141 137 133 131 130 117 131 135 133 167 138 152 127 69 73 69 69 77 89 70 120 110 288 266 301 328 344 67 50 40 38 45 53 58 69 62 59 50 39
181 178 168 163 172 172 173 172 173 169 169 174 173 175 178 175 168 169 160 140 112 95 121 135 137 120 139 146 141 145 141 126 115 119 125 132 135 135 138 141 140 139 143 144 142 135 135 133 136 132 128 118 112 131 136 147 137 143 138 149 111 69 52 31 37 73 51 82 177 204 211 304 333 292 313 15 360 22 23 69 78 70 65 58 39
177 175 170 171 173 176 176 178 177 170 173 177 175 178 178 182 176 170 162 152 150 146 139 131 124 135 153 156 158 141 151 145 137 130 131 140 138 141 141 142 138 140 143 148 150 141 137 127 125 119 124 128 132 116 106 110 121 118 125 136 152 154 163 161 182 163 134 139 76 249 266 214 220 300 289 339 338 22 41 84 100 82 72 56 41